Theta_e
312 312 312 308 305 310 305 306 303 305 310 315 319 320 322 323 327 330 333 338 341 344 345 345 348 354 356 362 368 370 370 371
311 313 312 311 312 303 305 299 299 304 306 307 313 316 320 321 324 328 333 337 340 343 346 348 348 353 358 362 367 369 369 371
312 308 307 307 308 308 308 306 301 300 305 315 316 318 318 321 324 326 329 335 338 342 345 349 350 350 355 360 363 368 369 370
308 312 313 312 309 309 304 304 305 306 307 317 318 318 320 321 324 326 330 333 337 341 344 346 350 350 352 356 358 366 368 369
306 309 311 309 310 311 310 309 306 302 306 318 317 318 321 321 324 328 331 333 335 339 342 344 347 354 354 356 355 358 365 365
304 307 309 306 308 310 310 306 306 307 309 313 315 316 320 322 325 327 331 333 335 337 340 344 348 355 357 354 354 357 360 362
309 311 310 309 308 309 307 309 306 309 310 314 316 318 320 323 324 324 326 328 331 333 336 340 348 356 359 356 359 357 361 363
306 310 307 306 309 309 309 309 310 310 311 319 320 320 320 321 321 321 322 327 329 332 336 338 343 354 357 360 358 361 362 362
301 307 306 302 307 309 310 312 311 308 314 319 318 318 319 321 322 321 324 325 326 328 333 339 341 348 352 359 362 362 361 366
299 304 296 307 314 312 310 312 314 314 316 318 319 320 322 324 323 324 325 326 327 328 330 335 338 341 350 349 362 363 364 361
296 299 304 307 310 310 308 308 314 314 315 316 318 319 320 323 324 325 326 327 328 329 329 332 332 340 344 349 354 361 362 364
298 295 296 306 310 312 313 304 315 315 315 316 318 312 316 324 327 330 332 334 335 333 330 331 334 333 337 341 357 360 362 365
294 294 300 308 312 313 301 310 320 318 318 320 320 325 331 332 332 334 336 337 338 338 335 339 339 342 346 346 350 359 361 364
294 293 292 309 307 304 311 318 318 319 320 321 324 325 328 330 331 333 335 338 340 339 338 338 344 352 356 357 359 368 366 365
297 297 307 308 308 311 312 311 313 314 315 318 318 319 323 326 330 333 336 341 343 340 345 347 350 355 357 363 372 369 369 368
298 302 304 306 308 309 310 310 312 313 314 314 313 316 319 324 326 331 334 341 344 342 346 348 353 355 363 365 371 371 369 370
298 301 303 305 307 308 309 310 310 312 312 313 317 317 319 322 326 331 334 343 345 349 348 350 355 358 359 362 366 363 363 361
294 302 303 304 307 309 308 308 310 310 312 315 316 315 318 320 326 332 337 347 348 352 356 356 356 359 364 362 362 361 358 357
301 305 305 307 308 309 308 309 310 311 312 312 313 314 316 320 327 330 344 345 345 351 354 354 351 347 356 364 362 363 365 364
Wind_Speed
30 25 27 23 30 25 23 23 16 20 24 27 22 27 20 15 21 23 24 23 25 27 25 25 23 24 24 22 23 22 22 19
33 25 29 28 23 24 19 22 20 16 16 17 21 18 25 25 17 21 24 24 24 24 26 23 25 24 25 24 23 24 24 21
27 30 28 26 23 27 21 18 14 12 9 17 19 22 21 21 26 21 21 24 24 23 25 25 23 24 24 23 24 22 23 22
30 28 26 27 28 29 18 24 18 12 2 11 10 8 17 21 19 24 20 22 22 23 21 23 24 24 25 25 25 23 22 21
24 26 26 31 31 25 27 19 20 16 6 8 6 2 14 16 18 18 19 20 20 20 22 21 22 21 22 23 25 25 22 22
18 23 22 29 31 30 25 21 17 19 15 12 6 7 5 5 12 16 14 14 14 18 22 21 19 18 19 21 23 23 23 23
26 13 10 29 31 31 31 24 25 14 19 14 14 13 12 11 8 5 4 2 5 9 10 9 15 15 18 19 18 21 21 21
22 18 7 13 21 31 28 28 23 23 15 17 12 9 7 8 8 5 5 10 8 9 12 13 15 15 15 18 18 17 18 21
15 18 11 18 21 18 25 26 24 21 18 11 9 8 4 5 6 4 7 6 8 10 9 11 13 12 14 14 16 17 18 16
11 17 23 11 17 16 13 14 14 12 9 9 7 7 9 9 9 10 11 10 9 9 11 12 13 14 14 15 15 16 16 19
11 15 7 20 13 17 23 19 15 14 13 9 9 9 11 10 10 11 14 13 12 13 13 13 11 15 10 12 14 16 17 19
8 14 19 7 11 1 2 10 15 20 17 15 10 11 12 10 9 10 12 11 13 13 13 12 10 13 11 12 13 15 19 16
14 10 11 6 9 4 11 6 10 4 4 9 7 9 13 11 11 11 12 14 14 12 13 12 12 12 11 11 14 18 14 15
14 18 20 11 2 7 8 6 10 11 13 9 9 10 13 14 14 14 15 15 15 13 14 14 11 10 10 11 13 10 13 14
12 12 8 10 12 12 7 6 8 10 11 11 12 14 15 14 14 15 17 17 13 14 13 10 9 7 9 11 9 10 12 13
16 16 16 16 13 12 12 14 14 15 14 15 17 17 17 15 15 15 16 18 14 13 10 10 7 9 10 9 8 10 12 12
20 22 22 22 19 17 18 19 20 20 20 18 19 18 17 17 16 15 18 20 11 9 11 9 5 7 9 9 9 11 11 11
17 19 18 17 17 19 21 22 24 21 20 19 21 20 20 18 16 14 20 13 12 13 5 4 3 6 7 7 9 10 11 10
22 25 26 24 22 23 21 20 19 19 21 24 22 23 23 20 16 16 14 13 11 11 9 6 8 4 6 4 9 9 9 10
Wind_Direction
213 210 212 192 216 218 241 213 234 213 217 237 228 222 218 242 201 195 184 193 190 190 195 188 188 190 192 193 191 193 200 202
198 206 214 228 203 215 229 249 223 232 242 206 208 223 212 206 211 218 178 187 195 193 192 195 190 191 191 195 194 196 197 200
206 202 197 205 210 213 229 232 244 242 239 220 200 201 215 217 209 214 207 184 193 195 194 194 196 192 195 197 200 195 200 202
202 198 211 208 218 199 222 214 238 267 95 30 155 207 188 215 210 209 202 189 191 189 197 194 197 199 198 201 202 203 202 205
238 188 197 220 208 219 210 234 210 229 164 121 114 288 188 194 212 205 200 195 188 189 188 202 198 200 202 199 207 206 204 205
220 198 190 207 216 212 218 218 220 208 231 121 102 155 134 189 193 193 199 198 200 197 191 193 197 194 203 204 208 206 204 209
252 258 222 197 216 213 217 215 224 202 208 166 133 129 143 134 115 101 124 204 228 254 258 215 187 195 194 209 209 209 201 204
251 244 228 264 231 219 213 224 221 231 229 189 168 140 148 160 185 166 207 180 192 218 230 233 214 194 201 202 213 204 212 206
232 237 229 237 234 240 225 211 225 222 227 231 166 178 194 231 271 251 234 238 252 251 210 232 212 210 206 204 203 216 210 208
240 231 224 235 204 234 251 258 242 242 254 254 268 271 252 244 258 267 265 267 272 253 227 201 218 208 195 201 200 211 213 212
251 229 204 219 228 209 212 222 229 236 233 245 261 268 265 269 272 281 283 283 275 256 239 241 231 191 207 198 199 202 215 213
257 251 219 167 72 63 61 218 222 217 228 236 227 232 231 254 283 321 335 333 346 315 280 280 264 255 242 208 199 207 210 211
237 258 247 350 86 227 186 72 2 303 179 230 208 351 346 334 333 332 322 308 300 298 297 286 274 276 267 235 210 216 206 203
229 237 239 279 23 234 42 48 16 7 10 358 338 323 317 323 323 322 318 311 293 283 270 266 259 246 237 235 234 201 206 198
231 225 246 291 302 286 30 339 318 330 320 319 310 309 304 307 316 314 314 310 297 278 276 291 267 240 240 240 234 207 198 199
271 265 274 290 302 296 313 297 297 298 291 291 289 290 296 303 309 315 312 303 299 283 282 271 246 248 245 247 213 205 196 198
261 258 276 279 279 283 286 288 289 283 286 295 300 296 297 300 306 309 307 293 288 296 275 273 275 267 249 221 197 198 195 197
260 266 268 261 259 257 256 261 273 284 293 292 291 287 293 292 298 313 289 306 308 293 322 44 13 330 307 194 189 197 191 191
280 280 277 273 274 275 271 255 263 278 289 290 289 290 290 287 297 303 281 282 275 271 259 169 154 69 352 304 186 196 208 178